Wreay, United Kingdom

11:52 PM BST on June 24, 2019 (GMT +0100)
Wreay

Weather History for 03222 - December, 2008

Change the Weather History Date:

Monday, December 22, 2008

  Actual Average Record
Temperature  
Mean Temperature 48 °F -  
Max Temperature 50 °F 42 °F - ()
Min Temperature 46 °F 37 °F - ()
Degree Days  
Heating Degree Days 17    
Moisture  
Dew Point 47 °F    
Average Humidity 93    
Maximum Humidity 100    
Minimum Humidity 87    
Precipitation  
Precipitation 0.00 in - - ()
Sea Level Pressure  
Sea Level Pressure 30.46 in    
Wind  
Wind Speed 8 mph ()    
Max Wind Speed 14 mph    
Max Gust Speed -    
Visibility 5.5 miles    
Events      
T = Trace of Precipitation, MM = Missing Value Source: Averaged Metar Reports

Daily Weather History Graph

Daily Weather History Graph

Search for Another Location

Airport or City:

Astronomy

Dec. 22, 2008 Rise Set
Actual Time 8:35 AM GMT 3:46 PM GMT
Civil Twilight 7:49 AM GMT 4:31 PM GMT
Nautical Twilight 7:02 AM GMT 5:19 PM GMT
Astronomical Twilight 6:17 AM GMT 6:03 PM GMT
Moon 3:44 AM GMT (12/22) 12:20 PM GMT (12/22)
Length of Visible Light 8h 41m
Length of Day
7h 10m
Waning Crescent, 21% of the Moon is Illuminated
Dec 22
Waning Crescent
Dec 27
New
Jan 4
First Quarter
Jan 11
Full
Jan 18
Last Quarter

Hourly Weather History & Observations

Time (GMT) Temp. Windchill Dew Point Humidity Pressure Visibility Wind Dir Wind Speed Gust Speed Precip Events Conditions
8:50 AM 48.2 °F - 44.6 °F 87% 30.45 in 5.6 mi WSW 13.8 mph - N/A   Scattered Clouds
9:20 AM 48.2 °F - 44.6 °F 87% 30.45 in 6.2 mi WSW 11.5 mph - N/A   Scattered Clouds
9:50 AM 46.4 °F 40.4 °F 44.6 °F 93% 30.45 in 6.2 mi West 13.8 mph - N/A   Scattered Clouds
10:20 AM 46.4 °F 41.9 °F 44.6 °F 93% 30.45 in 6.2 mi West 9.2 mph - N/A   Scattered Clouds
10:50 AM 48.2 °F - 44.6 °F 87% 30.45 in 6.2 mi WSW 6.9 mph - N/A   Scattered Clouds
11:20 AM 48.2 °F - 44.6 °F 87% 30.45 in 6.2 mi WSW 6.9 mph - N/A   Scattered Clouds
11:50 AM 48.2 °F - 46.4 °F 93% 30.48 in 6.2 mi SW 6.9 mph - N/A   Scattered Clouds
12:20 PM 48.2 °F - 46.4 °F 93% 30.48 in 6.2 mi WSW 8.1 mph - N/A   Scattered Clouds
12:50 PM 50.0 °F - 46.4 °F 87% 30.48 in 6.2 mi WSW 10.4 mph - N/A   Scattered Clouds
1:20 PM 50.0 °F - 46.4 °F 87% 30.45 in 6.2 mi West 9.2 mph - N/A   Scattered Clouds
1:50 PM 50.0 °F - 48.2 °F 94% 30.45 in 6.2 mi West 6.9 mph - N/A   Scattered Clouds
2:20 PM 50.0 °F - 48.2 °F 94% 30.48 in 6.2 mi WSW 9.2 mph - N/A   Scattered Clouds
2:50 PM 50.0 °F - 48.2 °F 94% 30.45 in 6.2 mi WSW 6.9 mph - N/A   Scattered Clouds
3:20 PM 48.2 °F - 48.2 °F 100% 30.45 in 2.5 mi West 6.9 mph - N/A   Scattered Clouds
3:50 PM 48.2 °F - 48.2 °F 100% 30.45 in 1.9 mi South 4.6 mph - N/A   Scattered Clouds
4:20 PM 48.2 °F - 46.4 °F 93% 30.45 in 2.8 mi South 3.5 mph - N/A   Scattered Clouds
4:50 PM 48.2 °F - 46.4 °F 93% 30.45 in 5.6 mi SSW 3.5 mph - N/A   Scattered Clouds
5:20 PM 48.2 °F - 48.2 °F 100% 30.48 in 5.6 mi SSW 4.6 mph - N/A   Scattered Clouds
5:50 PM 50.0 °F - 48.2 °F 94% 30.48 in 5.6 mi WSW 8.1 mph - N/A   Scattered Clouds
6:20 PM 50.0 °F - 48.2 °F 94% 30.48 in 5.6 mi WSW 9.2 mph - N/A   Scattered Clouds